This is the latest recevied weather packets stored in our database for station/object WI5KEY. If no packets are shown the sender has not sent any weather packets the latest 10 day(s).
| Time | Temp. | Humidity | Pressure | Rain* | Wind** | Luminosity | Snow |
|---|---|---|---|---|---|---|---|
| 1777903237 | 19.44° C | 83% | 1015.3 hPa | 0 mm | - | - | - |
| 1777902327 | 18.89° C | 85% | 1015.5 hPa | 0 mm | - | - | - |
| 1777901426 | 17.78° C | 88% | 1015.6 hPa | 0 mm | - | - | - |
| 1777900526 | 17.22° C | 89% | 1015.5 hPa | 0 mm | - | - | - |
| 1777899636 | 16.67° C | 89% | 1015.4 hPa | 0 mm | - | - | - |
| 1777898730 | 16.11° C | 89% | 1015.1 hPa | 0 mm | - | - | - |
| 1777897824 | 16.11° C | 89% | 1015.2 hPa | 0 mm | - | - | - |
| 1777896921 | 16.11° C | 88% | 1015.1 hPa | 0 mm | - | - | - |
| 1777896029 | 16.11° C | 88% | 1014.9 hPa | 0 mm | - | - | - |
| 1777895121 | 16.11° C | 88% | 1014.7 hPa | 0 mm | - | - | - |
| 1777894222 | 16.11° C | 88% | 1014.6 hPa | 0 mm | - | - | - |
| 1777893317 | 16.11° C | 88% | 1015.1 hPa | 0 mm | - | - | - |
| 1777892415 | 16.67° C | 88% | 1014.8 hPa | 0 mm | - | - | - |
| 1777891515 | 16.67° C | 87% | 1014.9 hPa | 0 mm | - | - | - |
| 1777890615 | 16.67° C | 87% | 1014.8 hPa | 0 mm | - | - | - |
| 1777889716 | 16.67° C | 86% | 1014.9 hPa | 0 mm | - | - | - |
| 1777888810 | 16.67° C | 86% | 1015 hPa | 0 mm | - | - | - |
| 1777887915 | 16.67° C | 85% | 1015.1 hPa | 0 mm | - | - | - |
| 1777887007 | 16.67° C | 85% | 1015.2 hPa | 0 mm | - | - | - |
| 1777886112 | 16.67° C | 85% | 1015.5 hPa | 0 mm | - | - | - |
| 1777885204 | 16.67° C | 84% | 1015.8 hPa | 0 mm | - | - | - |
| 1777884303 | 16.67° C | 84% | 1015.7 hPa | 0 mm | - | - | - |
| 1777883401 | 16.67° C | 84% | 1015.7 hPa | 0 mm | - | - | - |
| 1777882561 | 16.67° C | 83% | 1015.6 hPa | 0 mm | - | - | - |
| 1777881658 | 17.22° C | 82% | 1015.5 hPa | 0 mm | - | - | - |
* Rain latest hour (hover to see other rain measurements)
** Current wind speed in m/s (hover to see current wind gust speed)